This is the latest recevied weather packets stored in our database for station/object N9WHM. If no packets are shown the sender has not sent any weather packets the latest 10 day(s).
| Time | Temp. | Humidity | Pressure | Rain* | Wind** | Luminosity | Snow |
|---|---|---|---|---|---|---|---|
| 1778188991 | 21.11° C | 24% | 1009 hPa | 0 mm | - | 551 W/m² | - |
| 1778188687 | 20.56° C | 25% | 1009 hPa | 0 mm | - | 562 W/m² | - |
| 1778188383 | 20° C | 26% | 1008.8 hPa | 0 mm | - | 564 W/m² | - |
| 1778188080 | 20.56° C | 26% | 1008.8 hPa | 0 mm | - | 139 W/m² | - |
| 1778187777 | 20.56° C | 26% | 1008.9 hPa | 0 mm | - | 238 W/m² | - |
| 1778187473 | 20.56° C | 28% | 1009 hPa | 0 mm | - | 634 W/m² | - |
| 1778187171 | 20.56° C | 28% | 1009 hPa | 0 mm | - | 638 W/m² | - |
| 1778186867 | 20° C | 27% | 1009 hPa | 0 mm | - | 677 W/m² | - |
| 1778186564 | 20.56° C | 26% | 1008.9 hPa | 0 mm | - | 654 W/m² | - |
| 1778186262 | 20.56° C | 27% | 1008.9 hPa | 0 mm | - | 664 W/m² | - |
| 1778185959 | 20.56° C | 28% | 1009.1 hPa | 0 mm | - | 670 W/m² | - |
| 1778185656 | 20° C | 27% | 1009.1 hPa | 0 mm | - | 703 W/m² | - |
| 1778185352 | 20.56° C | 29% | 1009.4 hPa | 0 mm | - | 719 W/m² | - |
| 1778185046 | 21.11° C | 26% | 1009.4 hPa | 0 mm | - | 709 W/m² | - |
| 1778184744 | 20.56° C | 29% | 1009.3 hPa | 0 mm | - | 721 W/m² | - |
| 1778184435 | 20.56° C | 28% | 1009.4 hPa | 0 mm | - | 740 W/m² | - |
| 1778184131 | 20° C | 29% | 1009.4 hPa | 0 mm | - | 741 W/m² | - |
| 1778183827 | 20° C | 28% | 1009.5 hPa | 0 mm | - | 740 W/m² | - |
| 1778183524 | 20° C | 29% | 1009.5 hPa | 0 mm | - | 758 W/m² | - |
| 1778183221 | 20° C | 28% | 1009.6 hPa | 0 mm | - | 767 W/m² | - |
| 1778182916 | 20.56° C | 29% | 1009.5 hPa | 0 mm | - | 774 W/m² | - |
| 1778182613 | 20.56° C | 28% | 1009.5 hPa | 0 mm | - | 765 W/m² | - |
| 1778182311 | 20.56° C | 27% | 1009.6 hPa | 0 mm | - | 783 W/m² | - |
| 1778182006 | 18.89° C | 28% | 1009.8 hPa | 0 mm | - | 793 W/m² | - |
| 1778181704 | 18.89° C | 28% | 1009.6 hPa | 0 mm | - | 776 W/m² | - |
* Rain latest hour (hover to see other rain measurements)
** Current wind speed in m/s (hover to see current wind gust speed)